Location: *
(46.1006°N, 1.8394°E)
Time: 23:13:13
(UTC+00:00)

GP-B - Pass Details

Date: 20 September 2019
Orbit: 631 x 635 km, 89.8° (Epoch: 14 October)

Event Time Altitude Azimuth Distance (km) Brightness Sun altitude
Rises 18:12:24 0° 8° (N) 2,939 6.5 -3.8°
Reaches altitude 10° 18:14:45 10° 16° (NNE) 2,025 5.6 -4.2°
Maximum altitude 18:18:56 39° 86° (E) 952 3.6 -5.0°
Drops below altitude 10° 18:23:05 10° 156° (SSE) 2,008 5.4 -5.7°
Sets 18:25:24 0° 164° (SSE) 2,911 6.3 -6.1°
